Volver al catálogo

COSMOS 2368

ActivoNavegaciónHEO
NORAD 26042·PAYLOAD·🇷🇺 Russia

Lanzado Dec 27, 1999 desde Plesetsk Cosmodrome

Loading…

Próximos Pases (próximas 24 horas)

TLE

ActualizadoSource: Space-Track

Época: Sep 13, 2026, 13:33 UTC

1 26042U 99073A   26256.56524444  .00000706  00000-0  00000-0 0  9990
2 26042  66.7691 288.6988 6412314 160.3384 244.6721  2.00391326195698

Sigue COSMOS 2368 en tiempo real con AllMySat

Download on the App Store